[[{"header":{"parameterUnit":"m.s-1","parameterCategory":1,"la1":30.2991,"la2":30.254,"lo1":-89.0895,"lo2":-89.0444,"dx":0.0017,"dy":0.0017,"nx":28,"ny":28,"refTime":"2022-12-29T09:00:00:Z","depth":0,"parameterNumber":2,"parameterNumberName":"U-component_of_WINDS"},"data":[0,0,0,0,0,0,0,0,0,0,0,0,0,0,0,0,0,0,0,0,0,0,0,0,0,0,0,0,0,0,0,0,0,0,0,0,0,0,0,0,0,0,0,0,0,0,0,0,0,0,0,0,0,0,0,0,0,0,-4.3207,-4.3207,0,-4.326,-4.3261,-4.3262,-4.3185,-4.3182,-4.3179,-4.3177,-4.3235,-4.3239,-4.3243,0,0,0,0,0,0,0,0,0,0,0,0,0,-4.3041,-4.3044,-4.3207,-4.3207,-4.3208,-4.326,-4.3261,-4.3262,-4.3185,-4.3182,-4.3178,-4.3175,-4.3233,-4.3238,-4.3243,0,0,0,0,0,0,0,0,0,0,0,0,0,-4.3106,-4.3045,-4.3207,-4.3176,-4.3174,-4.326,-4.3261,-4.3262,-4.3186,-4.3182,-4.3178,-4.3174,-4.3232,-4.3238,-4.3244,-4.3364,0,0,-4.3263,-4.3265,0,0,0,0,0,0,0,0,-4.3102,-4.3112,-4.318,-4.3178,-4.3176,-4.3212,-4.3224,-4.3296,-4.3187,-4.3181,-4.3177,-4.3172,-4.3231,-4.3237,-4.3256,-4.3366,-4.3369,-4.3263,-4.3267,-4.327,-4.3271,0,0,0,0,0,0,0,-4.3098,-4.3109,-4.3228,-4.3181,-4.3179,-4.3161,-4.3165,-4.3237,-4.3228,-4.3182,-4.3176,-4.3183,-4.3229,-4.325,-4.3257,-4.337,-4.3263,-4.3268,-4.3272,-4.3275,-4.3582,-4.3586,0,0,0,0,0,0,-4.3096,-4.3106,-4.3226,-4.323,-4.3128,-4.3167,-4.3172,-4.3204,-4.3227,-4.3227,-4.3187,-4.3179,-4.3242,-4.3249,-4.3258,-4.3399,-4.3269,-4.3275,-4.3279,-4.3577,-4.3583,-4.3587,0,0,0,0,0,0,-4.3093,-4.3108,-4.3224,-4.3166,-4.318,-4.3174,-4.3211,-4.3208,-4.3229,-4.3231,-4.323,-4.321,-4.3239,-4.325,-4.3338,-4.34,-4.3278,-4.3284,-4.3572,-4.3579,-4.3585,-4.3684,0,0,0,0,0,0,-4.3089,-4.3107,-4.3152,-4.3168,-4.3183,-4.3302,-4.3215,-4.3212,-4.3239,-4.323,-4.3252,-4.3252,-4.3236,-4.3329,-4.3344,-4.3407,-4.3288,-4.3566,-4.3575,-4.3583,-4.3675,-4.3693,-4.3708,0,0,0,0,0,-4.3083,-4.3178,-4.3154,-4.3169,-4.3239,-4.3306,-4.3315,-4.3293,-4.3244,-4.329,-4.3291,-4.3252,-4.3392,-4.3339,-4.3355,-4.342,-4.3562,-4.3572,-4.3582,-4.3667,-4.3689,-4.3708,0,0,0,0,0,0,-4.3171,-4.318,-4.3153,-4.3256,-4.3281,-4.3293,-4.3349,-4.3317,-4.3357,-4.3347,-4.332,-4.3326,-4.342,-4.3429,-4.337,-4.3538,-4.3469,-4.3483,-4.3528,-4.3549,-4.3565,-4.3561,-4.3293,0,0,0,0,0,-4.3202,-4.3255,-4.326,-4.3351,-4.3364,-4.3355,-4.3383,-4.3365,-4.3389,-4.3399,-4.3408,-4.3434,-4.3484,-4.3517,-4.3563,-4.3676,-4.368,-4.3729,-4.3746,-4.376,-4.3772,-4.3832,-4.3854,-4.362,-4.362,-4.362,0,0,-4.3267,-4.3279,-4.3314,-4.3369,-4.3385,-4.3441,-4.3364,-4.3427,-4.3468,-4.3409,-4.3492,-4.35,-4.3527,-4.3628,-4.3673,-4.3639,-4.3837,-4.3773,-4.3784,-4.3788,-4.3845,-4.3867,-4.3886,-4.3627,-4.3626,-4.3625,0,0,-4.3414,-4.3429,-4.3505,-4.3523,-4.3549,-4.3542,-4.3561,-4.3578,-4.358,-4.3663,-4.362,-4.3669,-4.3756,-4.3777,-4.3799,-4.3955,-4.392,-4.3971,-4.4059,-4.4118,-4.4136,-4.4152,-4.4207,-4.4227,-4.3983,-4.3984,-4.3984,0,-4.3492,-4.3574,-4.3549,-4.3614,-4.3639,-4.3588,-4.3666,-4.3685,-4.3725,-4.3745,-4.3706,-4.3813,-4.3828,-4.3933,-4.3971,-4.3991,-4.4011,-4.3968,-4.4135,-4.4151,-4.4166,-4.4218,-4.4239,-4.399,-4.3989,-4.3988,-4.3988,0,-4.3668,-4.3726,-4.3784,-4.3823,-4.3855,-4.3927,-4.3913,-4.3949,-4.3929,-4.3926,-4.4012,-4.4028,-4.4076,-4.41,-4.4081,-4.4203,-4.4181,-4.4139,-4.4069,-4.4195,-4.4243,-4.4263,-4.3998,-4.3996,-4.3994,-4.3993,0,0,-4.3871,-4.3895,-4.3917,-4.3933,-4.3959,-4.4003,-4.4073,-4.4119,-4.415,-4.418,-4.4238,-4.4312,-4.4274,-4.4299,-4.4282,-4.4334,-4.4456,-4.4286,-4.4286,-4.4316,-4.4591,-4.4621,-4.4645,-4.4433,-4.4437,-4.444,-4.4588,0,-4.4017,-4.4135,-4.4115,-4.423,-4.4283,-4.4235,-4.4296,-4.4319,-4.4319,-4.4365,-4.4365,-4.4418,-4.4364,-4.4379,-4.4428,-4.4431,-4.4511,-4.442,-4.4487,-4.449,-4.448,-4.467,-4.4702,-4.4841,-4.4607,-4.461,-4.4613,0,-4.4202,-4.4238,-4.4358,-4.4374,-4.4396,-4.4451,-4.4491,-4.4535,-4.4561,-4.4557,-4.4586,-4.4559,-4.4629,-4.4559,-4.4656,-4.4595,-4.4621,-4.4627,-4.4632,-4.4636,-4.4558,-4.4679,-4.4885,-4.4906,-4.4643,-4.464,-4.4638,0,-4.4337,-4.4415,-4.4497,-4.4513,-4.4535,-4.4574,-4.4585,-4.4606,-4.4635,-4.4672,-4.469,-4.4735,-4.4759,-4.4795,-4.4781,-4.4732,-4.4881,-4.481,-4.488,-4.488,-4.4912,-4.491,-4.5125,-4.4932,-4.4931,-4.4931,-4.4931,0,-4.4501,-4.4577,-4.4557,-4.4608,-4.4691,-4.4668,-4.4751,-4.4757,-4.4776,-4.4827,-4.479,-4.4839,-4.4819,-4.4867,-4.4857,-4.4939,-4.495,-4.495,-4.4946,-4.4952,-4.4952,-4.4968,-4.4958,-4.4936,-4.4935,-4.4934,-4.4933,0,-4.4665,-4.4655,-4.4741,-4.4754,-4.476,-4.482,-4.4832,-4.488,-4.4877,-4.4943,-4.4957,-4.4953,-4.5008,-4.4999,-4.506,-4.5053,-4.5154,-4.514,-4.5145,-4.5141,-4.5212,-4.5205,-4.5443,-4.5473,-4.5262,-4.5264,-4.5266,0,-4.477,-4.4826,-4.4845,-4.4876,-4.489,-4.4941,-4.497,-4.495,-4.4982,-4.5015,-4.5059,-4.511,-4.515,-4.524,-4.5244,-4.529,-4.5275,-4.5356,-4.5282,-4.5287,-4.5275,-4.5271,-4.5277,-4.537,-4.5372,-4.5374,-4.5376,0,-4.4956,-4.4949,-4.4991,-4.5033,-4.5068,-4.51,-4.5129,-4.5157,-4.514,-4.5178,-4.5233,-4.5264,-4.5325,-4.5377,-4.5421,-4.5433,-4.5402,-4.5399,-4.5418,-4.5424,-4.5425,-4.5424,-4.5184,-4.5393,-4.5392,-4.539,-4.5389,-4.5389,-4.5093,-4.514,-4.5161,-4.521,-4.5229,-4.5257,-4.5302,-4.5305,-4.535,-4.5398,-4.5384,-4.5447,-4.5471,-4.5526,-4.5544,-4.5593,-4.5563,-4.559,-4.5597,-4.5603,-4.5611,-4.5418,-4.5601,-4.56,-4.56,-4.5599,-4.5599,0,-4.5276,-4.5287,-4.5333,-4.5373,-4.5412,-4.5379,-4.5409,-4.5444,-4.5499,-4.5523,-4.5563,-4.5627,-4.5676,-4.5684,-4.5732,-4.577,-4.5757,-4.5783,-4.5779,-4.5782,-4.5636,-4.5614,-4.5792,-4.5792,-4.5792,-4.5792,-4.5792,-4.5792,-4.5376,-4.5455,-4.545,-4.5538,-4.5549,-4.5609,-4.5629,-4.5655,-4.5674,-4.5746,-4.5787,-4.5791,-4.581,-4.5858,-4.5903,-4.5904,-4.5923,-4.5954,-4.595,-4.5812,-4.5793,-4.5774,-4.5754,-4.5959,-4.5959,-4.6092,-4.6093,-4.6094]},{"header":{"parameterUnit":"m.s-1","parameterCategory":1,"la1":30.2991,"la2":30.254,"lo1":-89.0895,"lo2":-89.0444,"dx":0.0017,"dy":0.0017,"nx":28,"ny":28,"refTime":"2022-12-29T09:00:00:Z","depth":0,"parameterNumber":3,"parameterNumberName":"V-component_of_WINDS"},"data":[0,0,0,0,0,0,0,0,0,0,0,0,0,0,0,0,0,0,0,0,0,0,0,0,0,0,0,0,0,0,0,0,0,0,0,0,0,0,0,0,0,0,0,0,0,0,0,0,0,0,0,0,0,0,0,0,0,0,0.1765,0.1765,0,0.1783,0.1784,0.1784,0.1786,0.1786,0.1785,0.1785,0.1804,0.1805,0.1805,0,0,0,0,0,0,0,0,0,0,0,0,0,0.1734,0.1735,0.1765,0.1765,0.1765,0.1783,0.1784,0.1784,0.1786,0.1786,0.1785,0.1785,0.1804,0.1805,0.1805,0,0,0,0,0,0,0,0,0,0,0,0,0,0.175,0.1735,0.1765,0.1769,0.1769,0.1783,0.1784,0.1784,0.1786,0.1786,0.1785,0.1785,0.1804,0.1805,0.1806,0.1817,0,0,0.1809,0.1809,0,0,0,0,0,0,0,0,0.1749,0.1751,0.1768,0.1768,0.1769,0.1782,0.178,0.1795,0.1786,0.178,0.1785,0.1785,0.1797,0.1798,0.1803,0.1818,0.1819,0.1809,0.1809,0.181,0.181,0,0,0,0,0,0,0,0.1748,0.175,0.1772,0.1768,0.1769,0.177,0.1772,0.1783,0.179,0.178,0.178,0.1782,0.1797,0.1802,0.1803,0.1819,0.1809,0.181,0.181,0.1811,0.185,0.185,0,0,0,0,0,0,0.1746,0.1749,0.1772,0.1773,0.1758,0.1771,0.1773,0.1778,0.1789,0.1791,0.1783,0.1782,0.18,0.1802,0.1804,0.1821,0.181,0.1811,0.1811,0.185,0.185,0.1851,0,0,0,0,0,0,0.1745,0.1748,0.1771,0.1761,0.1764,0.1772,0.1777,0.1779,0.1783,0.1791,0.1793,0.1786,0.18,0.1802,0.1815,0.1822,0.1811,0.1812,0.1849,0.185,0.185,0.1854,0,0,0,0,0,0,0.1744,0.1747,0.1751,0.1761,0.1765,0.1781,0.1778,0.1779,0.1785,0.1785,0.1795,0.1796,0.18,0.1813,0.1816,0.1823,0.1813,0.1848,0.1849,0.185,0.1853,0.1855,0.1856,0,0,0,0,0,0.1743,0.175,0.1751,0.1754,0.1769,0.1781,0.1783,0.1788,0.1785,0.179,0.1796,0.1796,0.182,0.1815,0.1818,0.1825,0.1848,0.1849,0.185,0.1853,0.1855,0.1856,0,0,0,0,0,0,0.174,0.1752,0.1753,0.1763,0.1772,0.1782,0.1787,0.1789,0.1797,0.1797,0.1802,0.1804,0.1818,0.1822,0.1816,0.1839,0.1834,0.1836,0.1835,0.1837,0.1838,0.1837,0.1814,0,0,0,0,0,0.1741,0.1749,0.1759,0.1768,0.1772,0.1779,0.1784,0.1787,0.1796,0.1799,0.1806,0.1814,0.1825,0.1831,0.184,0.1854,0.1858,0.1861,0.1862,0.1863,0.1865,0.1876,0.1878,0.1854,0.1854,0.1854,0,0,0.1742,0.1749,0.1754,0.1767,0.1774,0.1784,0.1782,0.1791,0.1799,0.18,0.1814,0.1819,0.1829,0.1844,0.185,0.1848,0.1873,0.1865,0.1865,0.1866,0.1877,0.188,0.1882,0.1855,0.1854,0.1854,0,0,0.1749,0.1755,0.1764,0.1772,0.1783,0.1788,0.1791,0.1801,0.1806,0.1819,0.1821,0.1831,0.1847,0.1856,0.1862,0.1877,0.1878,0.188,0.1887,0.1898,0.19,0.1902,0.191,0.1912,0.1881,0.1881,0.1881,0,0.175,0.1764,0.1769,0.178,0.1787,0.179,0.1801,0.1808,0.1821,0.1826,0.1824,0.1847,0.1854,0.1872,0.1876,0.188,0.1885,0.1879,0.1899,0.1901,0.1903,0.191,0.1913,0.1882,0.1882,0.1882,0.1882,0,0.1765,0.1775,0.1782,0.1796,0.1804,0.1814,0.1823,0.183,0.1833,0.184,0.1855,0.1864,0.1877,0.1881,0.1883,0.1901,0.19,0.1898,0.1893,0.1905,0.1913,0.1916,0.1882,0.1882,0.1882,0.1882,0,0,0.1769,0.1789,0.1791,0.1799,0.1813,0.1822,0.1834,0.1847,0.1855,0.1865,0.1876,0.1892,0.1892,0.1899,0.1903,0.1913,0.1928,0.191,0.1911,0.1915,0.1951,0.1953,0.1956,0.1929,0.1929,0.193,0.1951,0,0.178,0.1801,0.1808,0.1827,0.1838,0.1843,0.1854,0.1865,0.1872,0.1883,0.1891,0.1903,0.1901,0.1906,0.1915,0.1924,0.1935,0.1922,0.1941,0.1942,0.194,0.196,0.1961,0.198,0.1953,0.1954,0.1954,0,0.1794,0.1806,0.1826,0.1842,0.1847,0.1857,0.1872,0.1882,0.1896,0.1901,0.1911,0.1915,0.193,0.1925,0.1947,0.1938,0.1946,0.1952,0.1953,0.1956,0.1949,0.1965,0.1986,0.199,0.1958,0.1958,0.1958,0,0.1798,0.1819,0.1835,0.1841,0.1859,0.1867,0.1875,0.1888,0.1897,0.1911,0.1917,0.1932,0.194,0.1952,0.1961,0.1956,0.1983,0.1978,0.1989,0.1989,0.1995,0.1995,0.202,0.1998,0.1998,0.1998,0.1998,0,0.1809,0.1822,0.1837,0.1847,0.1862,0.1871,0.1886,0.1895,0.1907,0.192,0.1925,0.1937,0.1947,0.1961,0.1968,0.1988,0.199,0.1996,0.1998,0.1996,0.1996,0.2003,0.2002,0.1999,0.1999,0.1998,0.1998,0,0.1815,0.1826,0.1844,0.1861,0.1866,0.1877,0.1892,0.1903,0.1912,0.1928,0.1933,0.1946,0.1963,0.1973,0.1994,0.1999,0.2021,0.2021,0.2017,0.2018,0.203,0.2029,0.2061,0.2067,0.204,0.204,0.204,0,0.1822,0.1833,0.1852,0.1862,0.187,0.1885,0.1895,0.1905,0.1916,0.1935,0.1944,0.1962,0.1976,0.2004,0.2016,0.2033,0.2035,0.2046,0.2038,0.2037,0.2038,0.2038,0.2041,0.2047,0.2047,0.2047,0.2048,0,0.1835,0.1841,0.1855,0.1873,0.1885,0.1899,0.1913,0.192,0.1933,0.1945,0.1964,0.1976,0.1999,0.2018,0.2037,0.2046,0.205,0.205,0.2054,0.2053,0.2051,0.2055,0.2022,0.2049,0.2049,0.2049,0.2049,0.2049,0.1843,0.1854,0.187,0.1888,0.19,0.1914,0.1926,0.1937,0.1953,0.1973,0.1979,0.1999,0.2016,0.2042,0.2053,0.2069,0.2068,0.2073,0.2074,0.2076,0.2078,0.2048,0.2073,0.2073,0.2073,0.2072,0.2072,0,0.1857,0.1869,0.1885,0.1906,0.192,0.1923,0.194,0.1952,0.197,0.1986,0.2001,0.2025,0.2044,0.2059,0.2079,0.209,0.2092,0.2095,0.2095,0.2098,0.2077,0.2072,0.2093,0.2093,0.2093,0.2093,0.2093,0.2093,0.1866,0.1886,0.1895,0.1922,0.1934,0.1954,0.1964,0.1978,0.1991,0.2017,0.2034,0.2044,0.206,0.2082,0.2101,0.2105,0.2113,0.2116,0.2121,0.2101,0.2099,0.2096,0.2093,0.2117,0.2117,0.214,0.2141,0.2141]}]]